Location: Minneapolis
(45.0000°N, 93.0000°W)
Time: 12:44:48
(UTC-05:00)

N. Korean satellite - Pass Details

Date: 13 March 2018
Orbit: 459 x 511 km, 97.2° (Epoch: 20 July)

Event Time Altitude Azimuth Distance (km) Brightness Sun altitude
Rises 20:18:10 0° 219° (SW) 2,541 10.7 -11.9°
Reaches altitude 10° 20:22:23 10° 268° (W) 1,689 10.7 -12.6°
Maximum altitude 20:22:37 10° 272° (W) 1,687 10.8 -12.6°
Drops below altitude 10° 20:22:52 10° 276° (W) 1,692 10.8 -12.7°
Sets 20:27:11 0° 324° (NW) 2,603 11.0 -13.4°
